| time (UTC) | temp F | wind direction | speed knots | gust knots | rain 1hr in | rain 24hr in | rain mn in | humidity % | barometer mb |
| 20260504100216 | 43 | 332 | 0.0 | 0.0 | 0.00 | 0.00 | 0.00 | 84 | 1015.7 |
| 20260504081803 | 46 | 37 | 0.0 | 0.9 | 0.00 | 0.00 | 0.00 | 75 | 1015.5 |
| 20260504080903 | 46 | 0 | 0.0 | 0.0 | 0.00 | 0.00 | 0.00 | 75 | 1015.5 |
| 20260504050003 | 45 | 0 | 0.0 | 0.0 | 0.00 | 0.00 | 0.00 | 65 | 1015.4 |
| 20260504045403 | 46 | 8 | 0.0 | 0.0 | 0.00 | 0.00 | 0.00 | 67 | 1015.4 |
| 20260504044503 | 46 | 8 | 0.0 | 0.9 | 0.00 | 0.00 | 0.00 | 64 | 1015.2 |
| 20260504043603 | 46 | 0 | 0.0 | 0.0 | 0.00 | 0.00 | 0.00 | 64 | 1015.1 |
| 20260504042703 | 45 | 0 | 0.0 | 0.0 | 0.00 | 0.00 | 0.00 | 65 | 1015.0 |
| 20260504041803 | 45 | 0 | 0.0 | 0.0 | 0.00 | 0.00 | 0.00 | 68 | 1014.9 |
| 20260504040903 | 46 | 0 | 0.0 | 0.0 | 0.00 | 0.00 | 0.00 | 66 | 1014.8 |
| 20260504040003 | 46 | 8 | 0.0 | 0.9 | 0.00 | 0.00 | 0.00 | 65 | 1014.7 |
| 20260504035403 | 46 | 8 | 0.0 | 0.9 | 0.00 | 0.00 | 0.00 | 64 | 1014.7 |
| 20260504034503 | 46 | 0 | 0.0 | 0.0 | 0.00 | 0.00 | 0.00 | 65 | 1014.7 |
| 20260504033603 | 46 | 0 | 0.0 | 0.0 | 0.00 | 0.00 | 0.00 | 67 | 1014.7 |
| 20260504032703 | 46 | 0 | 0.0 | 0.0 | 0.00 | 0.00 | 0.00 | 66 | 1014.6 |
| 20260504031803 | 46 | 0 | 0.0 | 0.0 | 0.00 | 0.00 | 0.00 | 66 | 1014.6 |
| 20260504030903 | 46 | 0 | 0.0 | 0.0 | 0.00 | 0.00 | 0.00 | 65 | 1014.6 |
| 20260504030003 | 46 | 0 | 0.0 | 0.0 | 0.00 | 0.00 | 0.00 | 65 | 1014.5 |
| 20260504025403 | 47 | 0 | 0.0 | 0.0 | 0.00 | 0.00 | 0.00 | 62 | 1014.6 |
| 20260504024503 | 47 | 0 | 0.0 | 0.0 | 0.00 | 0.00 | 0.00 | 60 | 1014.5 |
| 20260504023603 | 47 | 8 | 0.0 | 0.9 | 0.00 | 0.00 | 0.00 | 61 | 1014.7 |
| 20260504022703 | 46 | 0 | 0.0 | 0.0 | 0.00 | 0.00 | 0.00 | 63 | 1014.6 |
| 20260504021803 | 46 | 0 | 0.0 | 0.0 | 0.00 | 0.00 | 0.00 | 63 | 1014.7 |
| 20260504020903 | 47 | 0 | 0.0 | 0.0 | 0.00 | 0.00 | 0.00 | 61 | 1014.6 |
| 20260504020217 | 48 | 0 | 0.0 | 0.0 | 0.00 | 0.00 | 0.00 | 60 | 1014.6 |
| 20260504015403 | 48 | 8 | 0.0 | 0.0 | 0.00 | 0.00 | 0.00 | 56 | 1014.5 |
| 20260504014503 | 48 | 0 | 0.0 | 0.0 | 0.00 | 0.00 | 0.00 | 57 | 1014.5 |
| 20260504013603 | 48 | 0 | 0.0 | 0.0 | 0.00 | 0.00 | 0.00 | 58 | 1014.5 |
| 20260504012919 | 48 | 0 | 0.0 | 0.0 | 0.00 | 0.00 | 0.00 | 56 | 1014.5 |
| 20260504011803 | 49 | 8 | 0.0 | 0.9 | 0.00 | 0.00 | 0.00 | 53 | 1014.3 |
| 20260504011118 | 50 | 8 | 0.0 | 0.9 | 0.00 | 0.00 | 0.00 | 54 | 1014.2 |
| 20260504010003 | 50 | 0 | 0.0 | 0.0 | 0.00 | 0.00 | 0.00 | 53 | 1014.1 |
| 20260504005403 | 51 | 0 | 0.0 | 0.0 | 0.00 | 0.00 | 0.00 | 53 | 1014.0 |
| 20260504004503 | 51 | 8 | 0.0 | 0.9 | 0.00 | 0.00 | 0.00 | 50 | 1014.0 |
| 20260504003603 | 52 | 8 | 0.0 | 0.9 | 0.00 | 0.00 | 0.00 | 50 | 1013.8 |
| 20260504002919 | 52 | 8 | 0.0 | 0.9 | 0.00 | 0.00 | 0.00 | 48 | 1013.7 |
| 20260504001803 | 52 | 8 | 0.0 | 0.9 | 0.00 | 0.00 | 0.00 | 47 | 1013.5 |
| 20260504001117 | 53 | 8 | 0.0 | 0.9 | 0.00 | 0.00 | 0.00 | 46 | 1013.5 |
| 20260504000003 | 54 | 9 | 0.0 | 0.9 | 0.00 | 0.00 | 0.00 | 45 | 1013.4 |
| 20260503235403 | 54 | 32 | 0.0 | 0.9 | 0.00 | 0.00 | 0.00 | 44 | 1013.5 |
| 20260503234503 | 55 | 52 | 0.0 | 1.7 | 0.00 | 0.00 | 0.00 | 43 | 1013.5 |
| 20260503233603 | 56 | 337 | 0.0 | 1.7 | 0.00 | 0.00 | 0.00 | 41 | 1013.4 |
| 20260503232703 | 56 | 354 | 0.9 | 2.6 | 0.00 | 0.00 | 0.00 | 41 | 1013.2 |
| 20260503231803 | 56 | 35 | 0.9 | 5.2 | 0.00 | 0.00 | 0.00 | 39 | 1013.1 |
| 20260503230903 | 57 | 38 | 0.9 | 4.3 | 0.00 | 0.00 | 0.00 | 40 | 1013.0 |
| 20260503230216 | 57 | 343 | 0.0 | 1.7 | 0.00 | 0.00 | 0.00 | 41 | 1013.0 |
| 20260503225403 | 58 | 341 | 0.9 | 5.2 | 0.00 | 0.00 | 0.00 | 38 | 1012.9 |
| 20260503224503 | 58 | 13 | 1.7 | 7.0 | 0.00 | 0.00 | 0.00 | 36 | 1013.0 |
| 20260503223603 | 58 | 350 | 0.9 | 7.0 | 0.00 | 0.00 | 0.00 | 35 | 1013.0 |
| 20260503222703 | 58 | 32 | 0.9 | 4.3 | 0.00 | 0.00 | 0.00 | 35 | 1012.9 |
| 20260503221803 | 58 | 18 | 1.7 | 8.7 | 0.00 | 0.00 | 0.00 | 35 | 1013.0 |
| 20260503220903 | 58 | 76 | 1.7 | 8.7 | 0.00 | 0.00 | 0.00 | 34 | 1013.0 |
| 20260503220003 | 59 | 79 | 1.7 | 5.2 | 0.00 | 0.00 | 0.00 | 34 | 1013.0 |
| 20260503215403 | 59 | 37 | 1.7 | 5.2 | 0.00 | 0.00 | 0.00 | 35 | 1013.0 |
| 20260503214503 | 59 | 12 | 1.7 | 8.7 | 0.00 | 0.00 | 0.00 | 34 | 1013.0 |
| 20260503213603 | 59 | 32 | 1.7 | 7.0 | 0.00 | 0.00 | 0.00 | 36 | 1012.9 |
| 20260503212703 | 59 | 83 | 1.7 | 10.4 | 0.00 | 0.00 | 0.00 | 36 | 1012.9 |
| 20260503211803 | 59 | 80 | 1.7 | 10.4 | 0.00 | 0.00 | 0.00 | 34 | 1012.8 |
| 20260503210903 | 59 | 70 | 1.7 | 7.8 | 0.00 | 0.00 | 0.00 | 34 | 1012.9 |
| 20260503210003 | 59 | 13 | 1.7 | 9.6 | 0.00 | 0.00 | 0.00 | 36 | 1012.9 |
| 20260503205403 | 59 | 64 | 1.7 | 5.2 | 0.00 | 0.00 | 0.00 | 34 | 1012.9 |
| 20260503204503 | 59 | 27 | 1.7 | 7.0 | 0.00 | 0.00 | 0.00 | 37 | 1013.0 |
| 20260503203818 | 59 | 62 | 1.7 | 6.1 | 0.00 | 0.00 | 0.00 | 35 | 1012.9 |
| 20260503202703 | 59 | 53 | 1.7 | 13.9 | 0.00 | 0.00 | 0.00 | 35 | 1013.2 |
| 20260503201803 | 59 | 40 | 1.7 | 6.1 | 0.00 | 0.00 | 0.00 | 35 | 1013.1 |
| 20260503200903 | 60 | 78 | 1.7 | 7.0 | 0.00 | 0.00 | 0.00 | 37 | 1013.4 |
| 20260503200003 | 60 | 94 | 1.7 | 8.7 | 0.00 | 0.00 | 0.00 | 36 | 1013.3 |
| 20260503195619 | 60 | 105 | 1.7 | 8.7 | 0.00 | 0.00 | 0.00 | 37 | 1013.3 |
| 20260503194503 | 60 | 71 | 1.7 | 7.0 | 0.00 | 0.00 | 0.00 | 38 | 1013.4 |
| 20260503193603 | 59 | 70 | 1.7 | 6.1 | 0.00 | 0.00 | 0.00 | 37 | 1013.5 |
| 20260503192703 | 59 | 59 | 1.7 | 5.2 | 0.00 | 0.00 | 0.00 | 37 | 1013.4 |
| 20260503191803 | 59 | 20 | 2.6 | 7.8 | 0.00 | 0.00 | 0.00 | 36 | 1013.5 |
| 20260503191116 | 60 | 50 | 2.6 | 7.8 | 0.00 | 0.00 | 0.00 | 37 | 1013.7 |
| 20260503190003 | 60 | 30 | 2.6 | 7.8 | 0.00 | 0.00 | 0.00 | 37 | 1013.6 |
| 20260503185403 | 59 | 342 | 2.6 | 7.8 | 0.00 | 0.00 | 0.00 | 38 | 1013.6 |
| 20260503184503 | 59 | 16 | 2.6 | 8.7 | 0.00 | 0.00 | 0.00 | 35 | 1013.8 |
| 20260503183603 | 58 | 19 | 2.6 | 8.7 | 0.00 | 0.00 | 0.00 | 36 | 1013.8 |
| 20260503182703 | 58 | 32 | 2.6 | 8.7 | 0.00 | 0.00 | 0.00 | 34 | 1014.1 |
| 20260503181803 | 58 | 42 | 3.5 | 9.6 | 0.00 | 0.00 | 0.00 | 36 | 1014.0 |
| 20260503180903 | 58 | 48 | 2.6 | 8.7 | 0.00 | 0.00 | 0.00 | 35 | 1014.2 |
| 20260503180003 | 58 | 28 | 1.7 | 7.0 | 0.00 | 0.00 | 0.00 | 34 | 1014.0 |
| 20260503175403 | 58 | 70 | 1.7 | 5.2 | 0.00 | 0.00 | 0.00 | 34 | 1014.0 |
| 20260503174503 | 57 | 18 | 1.7 | 5.2 | 0.00 | 0.00 | 0.00 | 39 | 1014.2 |
| 20260503173603 | 57 | 338 | 1.7 | 7.0 | 0.00 | 0.00 | 0.00 | 39 | 1014.1 |
| 20260503172703 | 57 | 58 | 2.6 | 7.0 | 0.00 | 0.00 | 0.00 | 35 | 1014.2 |
| 20260503171803 | 56 | 261 | 0.9 | 7.0 | 0.00 | 0.00 | 0.00 | 42 | 1014.3 |
| 20260503170903 | 56 | 0 | 0.0 | 0.0 | 0.00 | 0.00 | 0.00 | 44 | 1014.4 |
| 20260503170218 | 55 | 0 | 0.0 | 0.0 | 0.00 | 0.00 | 0.00 | 40 | 1014.4 |
| 20260503160218 | 55 | 0 | 0.0 | 0.0 | 0.00 | 0.00 | 0.00 | 42 | 1014.7 |
| 20260503150903 | 53 | 0 | 0.0 | 0.0 | 0.00 | 0.00 | 0.00 | 47 | 1015.0 |